Tracking 23764 objects as of 17-Oct-2021
HD Live streaming from Space Station
objects crossing your sky now

W-CUBE

Track W-CUBE now!
10-day predictions


NORAD ID: 48965
Int'l Code: 2021-059CQ
Perigee: 527.8 km
Apogee: 545.2 km
Inclination: 97.5 °
Period: 95.2 minutes
Semi major axis: 6907 km
RCS: Unknown
Launch date: June 30, 2021
Source: (FIN)
Launch site: AIR FORCE EASTERN TEST RANGE (AFETR)
aabbcc
Your satellite tracking list
Your tracking list is empty




NASA's NSSDC Master Catalog

Two Line Element Set (TLE):
1 48965U 21059CQ  21290.30685696  .00001556  00000-0  93626-4 0  9993
2 48965  97.5261  57.4100 0012609 202.1390 157.9297 15.12243897 17152
Source of the keplerian elements: AFSPC